Location: Nag� el Ma?a??a
(24.0667°N, 32.8833°E)
Time: 16:45:44
(UTC+00:00)

Delta 2 Rocket - Pass Details

Date: 25 September 2021
Orbit: 415 x 798 km, 35.6° (Epoch: 16 October)

Event Time Altitude Azimuth Distance (km) Brightness Sun altitude
Exits shadow 03:01:09 11° 260° (W) 2,263 5.8 -9.3°
Maximum altitude 03:06:25 54° 336° (NNW) 955 4.4 -8.1°
Drops below altitude 10° 03:11:53 10° 54° (NE) 2,321 7.5 -6.8°
Sets 03:14:22 0° 59° (ENE) 3,215 8.4 -6.3°
